GFSFLT1_850_thetae_114.txt.gz
Theta_e
313 314 316 317 326 335 335 334 336 334 337 335 330 326 325 325 325 324 323 323 325 326 328 328 329 330 331 331 331 330 329 330
313 314 315 316 331 337 336 336 337 337 339 339 336 330 328 327 327 326 325 324 324 326 327 328 329 330 330 331 331 330 330 330
315 315 315 315 318 331 337 338 338 338 339 339 339 337 333 330 329 329 329 327 324 324 324 326 329 330 331 331 331 330 331 330
316 317 317 317 316 317 322 335 339 338 337 339 338 339 337 335 334 331 330 330 329 327 326 325 327 330 330 331 331 332 330 329
311 315 319 321 320 318 317 319 320 325 333 338 339 338 337 335 335 333 332 332 331 331 329 328 325 330 334 332 329 328 328 327
305 308 312 317 324 325 326 323 320 324 335 334 341 340 336 337 336 335 334 333 331 332 331 330 328 328 334 329 328 328 327 326
303 305 309 313 317 325 327 329 330 330 332 334 336 336 337 335 337 336 334 333 330 331 333 331 330 330 330 330 329 328 328 326
300 301 304 310 313 316 321 324 329 331 332 332 334 335 336 335 336 335 328 331 331 330 331 331 331 330 330 329 329 330 329 326
298 298 300 302 308 313 315 318 322 326 329 331 332 333 335 338 337 336 335 334 332 332 331 330 331 329 329 329 329 328 327 325
297 297 300 302 304 308 313 315 317 318 319 320 327 332 336 336 336 336 333 332 332 333 333 331 331 330 328 328 328 328 326 325
296 296 300 303 304 305 309 313 316 318 319 320 321 320 323 330 333 334 333 333 331 332 332 332 331 330 329 327 327 327 327 325
295 296 297 299 303 303 307 313 316 318 321 322 323 323 321 320 324 330 332 332 332 332 332 332 331 331 329 328 326 327 326 325
295 296 297 301 301 299 304 308 312 314 316 320 321 323 324 325 322 327 330 333 331 330 330 330 330 331 330 329 327 327 325 327
293 294 294 296 299 300 302 304 306 308 312 316 319 321 322 325 326 329 328 328 332 331 330 328 328 330 330 329 330 327 321 325
294 295 294 296 298 298 301 301 303 304 307 311 314 317 318 321 323 326 326 326 327 329 329 328 328 330 331 329 327 320 323 322
290 290 292 294 297 298 298 300 301 302 304 305 306 310 312 316 319 322 324 324 324 326 326 328 328 330 329 326 321 323 321 320
290 289 290 291 293 295 297 298 299 300 301 302 303 305 308 311 313 316 317 320 322 323 324 324 323 325 324 323 323 322 320 320
288 289 289 289 290 293 296 296 298 299 299 300 300 301 302 303 305 308 310 312 312 314 314 320 321 317 322 322 322 322 321 320
288 289 289 290 290 292 293 295 296 297 298 298 299 299 300 301 302 302 304 305 307 308 309 309 311 315 319 321 320 321 321 321

GFSFLT1_850_thetae_117.txt.gz
Theta_e
305 307 308 310 313 314 316 320 335 331 329 325 324 323 323 323 322 321 322 320 321 326 328 329 330 330 331 333 333 332 331 331
305 306 308 311 314 314 324 327 334 335 333 329 330 328 325 325 324 323 323 322 321 322 326 328 329 330 330 331 332 332 331 330
306 309 311 313 314 314 333 334 335 336 334 334 335 335 331 327 327 326 326 324 323 322 322 327 328 329 330 330 331 331 331 330
309 311 314 315 314 317 335 337 338 337 336 336 336 336 335 332 329 328 328 326 325 324 323 324 327 329 329 330 330 331 330 329
304 308 311 315 316 315 326 338 339 338 336 336 335 333 334 334 334 331 330 330 328 327 325 324 324 326 328 329 330 331 330 328
301 302 304 309 317 320 319 324 338 336 336 336 336 336 335 334 336 335 334 333 331 330 328 328 327 326 326 326 329 330 331 330
300 300 303 306 312 319 322 327 331 334 335 338 338 335 335 335 335 336 335 335 334 332 330 329 330 330 328 327 327 329 329 327
299 298 301 305 310 315 319 322 325 327 328 331 332 333 334 335 336 335 337 336 335 334 331 330 330 330 330 330 329 330 329 329
297 297 299 302 305 310 316 320 322 325 327 329 330 332 333 334 334 334 336 336 334 335 334 332 330 331 331 331 329 329 329 328
295 295 296 300 303 306 311 315 319 321 324 327 329 329 331 333 333 333 334 334 335 333 332 333 332 332 331 332 330 328 329 328
294 294 294 296 301 304 309 312 314 315 316 319 322 324 328 330 331 332 333 334 333 334 331 332 332 332 332 332 331 329 328 328
293 293 293 294 299 303 306 309 311 313 315 317 318 320 321 321 322 328 331 331 331 331 330 331 330 331 330 332 332 330 329 327
291 292 292 295 299 301 303 307 309 311 312 314 317 318 320 322 323 321 321 329 330 329 329 329 331 330 330 330 330 330 329 327
290 290 291 294 296 299 300 301 303 306 308 312 315 317 320 321 322 323 325 324 327 327 327 328 330 331 330 330 329 330 329 328
289 289 291 294 294 298 299 300 300 301 305 309 310 312 314 316 319 321 323 325 326 326 326 325 325 326 327 329 330 330 329 327
288 288 289 292 295 296 297 299 299 300 302 303 304 306 308 311 315 316 319 320 323 323 323 324 323 324 324 325 326 327 328 327
287 287 287 289 292 294 297 297 298 299 300 300 301 302 304 305 308 309 312 313 315 319 319 320 321 321 324 325 325 324 324 322
287 287 288 287 289 292 294 295 297 299 299 299 299 300 300 301 303 304 306 307 308 310 311 311 312 314 318 322 322 322 322 322
286 287 287 287 287 289 291 294 295 296 297 298 298 298 298 299 300 300 302 302 303 305 306 306 307 309 313 314 317 319 319 320

GFSFLT1_850_thetae_120.txt.gz
Theta_e
307 307 307 307 308 311 313 317 336 336 333 324 325 329 323 332 335 331 322 323 325 327 328 329 331 333 334 335 334 332 334 334
306 306 306 307 308 314 315 316 327 337 337 334 332 333 329 332 335 334 324 323 324 325 326 327 329 331 331 333 334 334 333 334
307 306 307 312 313 314 317 319 324 336 336 336 333 331 330 332 333 333 327 322 324 325 324 325 327 329 330 330 332 334 333 333
308 310 311 311 312 313 316 324 325 334 335 337 336 335 334 334 333 333 324 323 324 325 325 325 326 328 328 329 329 333 333 332
304 305 305 306 307 310 313 323 333 335 336 337 336 335 333 334 334 331 325 325 326 326 326 325 324 325 327 327 329 330 332 332
301 300 300 301 307 312 313 320 334 338 336 337 336 339 338 338 336 335 331 328 328 328 327 327 325 324 325 326 327 329 330 331
299 299 299 300 302 308 314 316 332 337 338 338 337 337 337 337 334 334 333 334 332 331 330 328 327 326 326 326 326 328 330 330
296 297 297 298 298 304 312 313 323 330 334 334 337 335 328 337 336 337 335 332 334 334 333 332 329 328 329 329 329 329 329 328
293 295 295 296 297 300 312 312 320 323 327 329 333 335 337 336 335 338 336 335 336 334 335 335 333 332 332 332 332 331 331 331
292 293 293 294 295 297 310 310 315 321 325 328 331 332 333 333 333 332 333 334 333 337 336 336 335 333 332 334 333 332 332 331
291 291 291 292 294 297 305 304 312 314 320 321 325 328 328 328 330 332 332 333 333 333 333 335 334 333 332 332 332 331 330 332
290 290 290 290 292 296 299 302 310 312 314 316 318 319 322 324 325 327 329 330 330 331 332 333 332 331 330 330 329 328 325 333
289 289 290 291 292 294 301 304 307 308 310 312 316 317 319 320 321 321 322 323 327 329 330 330 330 329 329 331 330 329 330 332
289 289 289 291 292 293 294 299 302 305 309 311 312 314 316 317 318 320 322 323 323 325 328 328 328 328 328 328 329 331 330 331
289 288 288 291 290 292 294 296 296 297 303 304 308 309 310 312 314 317 320 321 322 324 326 326 326 327 326 326 327 327 328 329
288 288 288 288 291 293 295 296 299 299 300 301 301 303 305 307 309 311 313 315 317 319 321 322 323 324 325 325 325 325 325 325
288 287 287 287 287 288 293 294 298 298 297 298 299 300 301 302 303 305 306 308 308 310 313 315 317 318 319 322 322 324 325 325
286 285 286 286 287 288 291 291 293 296 296 298 299 299 300 300 300 301 302 303 303 305 306 308 308 310 312 315 319 320 320 320
286 285 286 287 286 287 287 290 293 294 295 297 297 298 298 299 300 300 300 300 301 301 301 302 303 304 307 309 311 312 312 316

GFSFLT1_850_thetae_123.txt.gz
Theta_e
311 310 310 308 309 309 309 310 312 315 333 336 336 337 337 336 335 337 325 330 337 335 334 332 331 334 332 335 337 335 336 333
309 311 311 309 308 308 309 309 312 315 326 336 335 337 335 332 334 336 335 323 329 333 333 332 330 334 330 332 334 335 337 334
305 306 310 312 314 314 314 314 316 317 318 334 335 336 335 331 333 335 338 326 321 331 328 328 328 334 330 332 333 334 336 335
301 302 303 306 308 310 313 314 314 317 320 334 335 337 334 334 333 335 336 336 325 326 327 326 327 329 329 333 331 332 333 333
298 298 299 300 302 302 307 309 313 316 321 332 334 336 335 334 334 334 336 337 331 324 325 326 327 327 327 329 329 330 330 333
297 296 296 298 299 300 305 309 312 312 311 331 336 335 336 335 334 335 336 337 336 325 325 326 326 326 326 328 329 329 328 330
296 295 294 296 297 299 302 306 310 316 319 332 335 334 337 336 336 337 337 337 334 336 327 325 325 325 326 327 329 329 328 328
294 292 293 294 295 297 300 302 309 320 322 332 334 335 336 337 338 338 338 337 333 337 336 333 329 327 327 328 328 328 328 329
291 291 291 292 293 295 297 300 305 318 317 325 331 335 335 335 331 327 337 338 336 334 335 336 337 334 331 333 331 331 332 331
291 290 290 290 292 293 295 297 302 313 314 319 323 326 327 326 323 320 334 336 336 336 334 336 337 336 335 335 335 333 332 332
290 290 289 290 291 292 295 296 301 310 314 314 316 321 323 323 321 324 331 333 333 334 333 332 334 336 336 337 335 333 327 332
290 289 289 289 290 291 294 295 302 306 305 305 312 313 318 323 325 326 329 331 332 334 333 332 334 333 334 334 335 334 333 331
290 289 289 289 290 291 294 297 300 302 305 309 311 314 321 321 319 322 324 324 326 328 329 330 329 330 330 333 333 333 330 330
290 289 289 289 289 290 291 293 300 305 301 305 308 310 308 310 314 316 319 320 321 324 326 328 328 329 330 330 329 329 328 329
289 289 288 289 289 289 290 292 294 294 294 294 299 304 305 308 309 311 315 316 320 321 322 324 325 326 326 326 327 327 328 328
289 288 288 288 289 289 290 294 294 294 295 296 297 300 302 305 306 308 310 312 312 312 314 317 319 321 322 324 325 326 326 326
288 287 287 288 288 288 288 290 293 294 298 298 297 300 301 301 303 304 306 306 307 308 310 310 312 313 315 318 319 320 322 323
288 287 287 287 287 287 287 288 293 295 296 298 299 299 299 299 298 299 301 301 302 304 304 305 306 307 309 311 313 314 315 316
289 288 287 287 287 287 287 289 291 292 293 295 297 296 296 296 297 298 297 298 298 299 299 300 301 303 304 305 306 307 307 307

GFSFLT1_850_thetae_126.txt.gz
Theta_e
306 305 306 308 310 312 312 311 310 310 310 313 323 333 334 339 339 333 335 335 335 336 337 340 336 337 335 335 335 335 335 334
304 303 302 304 306 310 312 313 311 313 309 314 323 327 333 336 339 335 332 329 328 337 335 340 338 338 337 335 335 335 336 335
302 301 299 299 301 303 307 312 314 315 315 316 320 325 330 333 339 335 336 330 325 329 338 334 333 336 335 335 334 336 336 334
300 299 298 297 297 300 301 307 311 314 314 315 316 319 329 332 337 334 338 336 334 327 328 335 330 327 332 335 335 337 335 334
298 297 296 295 296 297 299 300 307 309 311 312 314 316 320 332 336 335 337 338 335 333 327 333 331 330 330 335 336 338 338 334
296 294 294 294 294 294 296 298 302 308 308 307 309 310 317 330 334 336 337 337 336 334 329 334 335 330 326 328 337 339 337 334
294 292 291 291 292 294 295 298 301 305 307 309 310 307 307 322 333 335 336 339 338 335 332 332 335 333 326 325 330 334 338 335
293 291 290 290 291 293 295 297 299 303 307 309 315 313 314 311 331 335 336 339 338 335 335 336 338 335 329 328 330 329 333 337
292 290 290 290 291 293 295 296 299 302 306 308 316 319 316 325 333 333 337 338 339 337 336 334 339 336 337 335 335 336 335 335
291 290 290 290 292 292 294 296 297 299 302 305 318 322 323 330 327 325 327 337 336 335 337 338 337 335 334 333 333 332 331 331
291 290 289 291 291 292 293 295 296 297 299 303 317 321 321 324 327 325 322 321 324 333 333 333 333 334 334 335 335 334 334 332
290 289 289 290 291 291 292 293 295 296 296 303 316 317 320 321 323 322 324 326 327 328 329 331 332 332 331 332 332 333 333 333
290 289 289 289 290 290 291 292 293 295 297 307 309 307 308 314 320 321 322 325 325 325 329 330 330 331 331 330 331 333 333 331
289 289 289 289 289 289 290 291 291 294 299 304 307 306 304 312 314 319 321 322 322 321 322 325 328 329 329 329 329 329 329 329
289 289 289 289 290 289 289 291 292 293 296 299 307 302 301 301 306 310 315 318 319 320 322 320 321 324 325 326 326 326 326 326
289 289 289 289 289 290 289 292 294 294 296 297 299 303 301 300 304 307 307 312 312 311 314 316 316 317 318 319 321 322 323 323
289 289 289 288 288 289 289 288 293 295 294 291 292 296 297 295 297 298 299 301 303 306 305 306 307 308 309 312 314 315 315 316
290 289 289 289 288 289 288 288 288 291 293 294 294 294 293 294 294 296 297 299 299 299 301 301 302 303 304 305 307 308 308 309
290 289 289 289 288 288 288 289 289 289 290 291 292 292 293 293 294 295 295 295 295 297 298 299 300 300 300 302 303 303 302 303

GFSFLT1_850_thetae_132.txt.gz
Theta_e
302 302 303 303 303 302 302 302 300 301 303 305 307 309 311 312 311 310 326 331 337 336 336 334 336 338 339 335 335 334 334 333
299 300 300 301 300 300 299 299 300 298 300 302 304 307 310 311 310 310 314 329 333 337 336 336 335 338 337 335 336 334 334 333
297 297 298 297 296 296 297 297 296 296 297 299 301 303 308 309 311 309 312 321 330 333 336 335 336 337 337 335 336 335 335 333
296 295 295 295 295 296 296 295 294 295 297 297 300 301 304 309 310 311 315 322 322 331 335 335 334 335 337 336 336 334 334 333
294 293 294 295 294 294 293 293 294 294 295 296 297 299 301 306 310 312 313 320 324 326 331 335 335 333 337 335 336 335 333 331
294 294 293 293 293 292 292 293 294 294 295 295 297 298 300 302 306 310 312 313 317 324 326 333 335 334 334 336 337 337 334 332
294 294 292 292 292 291 292 293 294 294 294 295 297 299 300 302 304 307 311 311 311 313 321 326 333 334 334 336 335 336 335 334
293 292 291 291 290 291 291 292 293 293 293 296 297 298 301 304 305 307 308 310 311 309 311 320 327 332 334 335 336 336 335 335
292 291 291 290 290 291 291 292 292 293 294 295 297 299 302 303 306 308 308 308 308 313 314 313 323 321 334 333 336 335 335 334
292 292 291 290 290 290 291 291 292 292 293 295 296 298 302 306 308 313 313 311 311 320 318 315 316 320 333 334 332 335 334 332
292 291 291 291 291 290 292 292 291 291 292 293 295 297 301 304 307 310 316 317 320 320 316 318 322 331 328 334 334 331 329 331
292 291 291 291 291 292 292 292 292 291 291 292 292 293 298 301 305 312 314 317 320 321 321 321 321 323 329 333 333 331 331 330
291 290 290 291 291 293 293 292 292 291 291 291 291 291 293 296 302 305 313 317 318 318 319 318 319 323 322 332 331 330 330 331
291 290 290 290 290 290 291 292 292 292 290 291 290 290 290 291 297 303 307 312 315 315 317 317 316 315 312 326 328 318 328 328
290 290 290 289 289 289 289 289 291 291 291 290 290 290 289 289 291 299 305 308 313 313 313 313 317 314 312 312 318 313 313 324
289 289 289 289 288 289 288 288 289 289 291 291 290 291 290 289 291 297 299 305 305 306 308 308 306 310 308 312 313 312 313 314
289 288 288 288 288 288 288 287 287 287 287 289 290 289 289 290 291 293 295 298 302 305 303 303 303 299 298 302 306 306 307 306
288 288 288 288 287 287 287 287 286 286 286 286 288 290 291 291 291 292 293 294 299 302 303 302 301 299 299 301 302 303 304 305
288 288 287 287 287 287 287 287 286 286 285 286 286 286 287 288 288 289 289 290 290 293 293 293 293 292 294 295 296 297 298 298